Zurück zum Katalog

STARLINK-37737

AktivKommunikationSSO
NORAD 69227·PAYLOAD·🇺🇸 United States

Gestartet May 26, 2026 von Vandenberg Space Force Base

Loading…

Nächste Überflüge (nächste 24 Stunden)

TLE

AktuellSource: CelesTrak SupGP

Epoche: Sep 15, 2026, 03:17 UTC

1 69227C 26115S   26258.13729167 -.00055487  00000+0 -17226-2 0  2588
2 69227  97.2833 274.3480 0001529  90.7271 175.6912 15.33464919    18

Verfolge STARLINK-37737 in Echtzeit mit AllMySat

Download on the App Store